Skip Page Navigation
NASA JPL Caltech
NASA Logo - Jet Propulsion Laboratory + View the NASA Portal
+ Center for Near-Earth Object Studies
JPL Home Earth Solar System Stars & Galaxies Technology
JPL Solar System Dynamics
BODIES ORBITS EPHEMERIDES TOOLS PHYSICAL DATA DISCOVERY FAQ SITE MAP
IMPORTANT: The SSD Announcement email list is now available. Major changes are coming in the near future, including possible hostname and/or URL changes. To be notified of such changes, subscribe to this email list.

Please visit this page for more details.


JPL Small-Body Database Browser
Search: [ help ]  
13386 (1998 XG80)
Classification: Main-belt Asteroid          SPK-ID: 2013386
Ephemeris | Orbit Diagram | Orbital Elements | Mission Design | Physical Parameters | Discovery Circumstances | Close-Approach Data ]

[ show orbit diagram ]
Orbital Elements at Epoch 2458600.5 (2019-Apr-27.0) TDB
Reference: JPL 29 (heliocentric ecliptic J2000)
 Element Value Uncertainty (1-sigma)   Units 
e .1419965272335824 5.044e-08  
a 3.174796615275987 2.7764e-08 au
q 2.723986521233865 1.638e-07 au
i 15.5695339255268 5.1361e-06 deg
node 116.9309307239816 1.7942e-05 deg
peri 231.2710953533978 2.3666e-05 deg
M 292.2543737985079 1.8139e-05 deg
tp 2458989.322197589772
(2020-May-19.82219759)
0.00010617 TDB
period 2066.199679312061
5.66
2.7103e-05
7.42e-08
d
yr
n .1742329183401392 2.2855e-09 deg/d
Q 3.625606709318109 3.1706e-08 au
  Orbit Determination Parameters
   # obs. used (total)      1735  
   data-arc span      10298 days (28.19 yr)  
   first obs. used      1991-07-06  
   last obs. used      2019-09-15  
   planetary ephem.      DE431  
   SB-pert. ephem.      SB431-N16  
   condition code      0  
   norm. resid. RMS      .49373  
   source      ORB  
   producer      Otto Matic  
   solution date      2019-Sep-24 01:14:54  

Additional Information
 Earth MOID = 1.74413 au 
 Jupiter MOID = 1.81869 au 
 T_jup = 3.129 
[ show covariance matrix ]

Ephemeris | Orbit Diagram | Orbital Elements | Mission Design | Physical Parameters | Discovery Circumstances | Close-Approach Data ]

Physical Parameter Table
Parameter Symbol Value Units Sigma Reference Notes
absolute magnitude H 12.4   n/a MPO365411  
diameter diameter 12.641 km 0.127 urn:nasa:pds:neowise_diameters_albedos::2.0[mainbelt] (http://adsabs.harvard.edu/abs/2014ApJ...791..121M)  
geometric albedo albedo 0.160   0.036 urn:nasa:pds:neowise_diameters_albedos::2.0[mainbelt] (http://adsabs.harvard.edu/abs/2014ApJ...791..121M)  

13386 (1998 XG80)          Discovered 1998-Dec-15 by LINEAR at Socorro
Reference: 20000124/Numbers.arcLast Updated: 2004-04-19

[ show close-approach data ]
Alternate Designations
 1998 XG80 = 1991 NL3 
Ephemeris | Orbit Diagram | Orbital Elements | Mission Design | Physical Parameters | Discovery Circumstances | Close-Approach Data ]
ABOUT SSD CREDITS/AWARDS PRIVACY/COPYRIGHT GLOSSARY LINKS
FirstGov
(server date/time)  
NASA Home Page
Site Manager:   Ryan S. Park
Webmaster  Alan B. Chamberlin